Weather History for Mosby, MO

Change the Weather History Date:

Tuesday, January 15, 2013

  Actual Average (KMKC) Record (KMKC)
Temperature  
Mean Temperature 23 °F -  
Max Temperature 32 °F 36 °F 63 °F (2006)
Min Temperature 14 °F 21 °F -2 °F (2009)
Degree Days  
Heating Degree Days 42    
Moisture  
Dew Point 14 °F    
Average Humidity 77    
Maximum Humidity 100    
Minimum Humidity 40    
Precipitation  
Precipitation 0.00 in - - ()
Sea Level Pressure  
Sea Level Pressure 30.31 in    
Wind  
Wind Speed 0 mph (SE)    
Max Wind Speed 7 mph    
Max Gust Speed -    
Visibility 10 miles    
Events      
Averages and records for this station are not official NWS values.
T = Trace of Precipitation, MM = Missing Value Source: NWS Daily Summary

Daily Weather History Graph

Daily Weather History Graph

Search for Another Location

Airport:

Trip Planner

Search our weather history database for the weather conditions in past years. The results will help you decide how hot, cold, wet, or windy it might be!

Date:

Astronomy

Jan. 15, 2013 Rise Set
Actual Time 7:35 AM CST 5:18 PM CST
Civil Twilight 7:05 AM CST 5:47 PM CST
Nautical Twilight 6:32 AM CST 6:21 PM CST
Astronomical Twilight 6:00 AM CST 6:53 PM CST
Moon 9:43 AM CST (1/15) 10:07 PM CST (1/15)
Length of Visible Light 10h 42m
Length of Day
9h 43m
Waxing Crescent, 19% of the Moon is Illuminated
Jan 15
Waxing Crescent
Jan 18
First Quarter
Jan 26
Full
Feb 3
Last Quarter
Feb 10
New

Hourly Weather History & Observations

Time (CST) Temp. Windchill Dew Point Humidity Pressure Visibility Wind Dir Wind Speed Gust Speed Precip Events Conditions
12:15 AM 15.8 °F - 14.0 °F 93% 30.41 in 10.0 mi Calm Calm - N/A   Clear
12:55 AM 14.0 °F - 14.0 °F 100% 30.40 in 10.0 mi Calm Calm - N/A   Clear
1:15 AM 14.0 °F - 14.0 °F 100% 30.40 in 10.0 mi Calm Calm - N/A   Clear
1:35 AM 14.0 °F - 12.2 °F 93% 30.39 in 10.0 mi Calm Calm - N/A   Clear
1:55 AM 14.0 °F - 12.2 °F 93% 30.40 in 10.0 mi Calm Calm - N/A   Clear
2:15 AM 14.0 °F - 12.2 °F 93% 30.39 in 10.0 mi Calm Calm - N/A   Clear
2:35 AM 14.0 °F - 12.2 °F 93% 30.39 in 10.0 mi Calm Calm - N/A   Clear
2:55 AM 14.0 °F - 12.2 °F 93% 30.37 in 10.0 mi Calm Calm - N/A   Clear
3:15 AM 14.0 °F - 12.2 °F 93% 30.37 in 10.0 mi Calm Calm - N/A   Scattered Clouds
3:35 AM 14.0 °F - 12.2 °F 93% 30.36 in 10.0 mi Calm Calm - N/A   Mostly Cloudy
3:55 AM 14.0 °F - 12.2 °F 93% 30.37 in 10.0 mi Calm Calm - N/A   Scattered Clouds
4:15 AM 14.0 °F - 12.2 °F 93% 30.37 in 10.0 mi Calm Calm - N/A   Clear
4:35 AM 14.0 °F - 12.2 °F 93% 30.36 in 10.0 mi Calm Calm - N/A   Mostly Cloudy
4:55 AM 14.0 °F - 12.2 °F 93% 30.36 in 10.0 mi Calm Calm - N/A   Overcast
5:15 AM 14.0 °F - 12.2 °F 93% 30.36 in 10.0 mi Calm Calm - N/A   Mostly Cloudy
5:35 AM 14.0 °F - 12.2 °F 93% 30.37 in 10.0 mi Calm Calm - N/A   Clear
5:55 AM 14.0 °F - 12.2 °F 93% 30.37 in 10.0 mi Calm Calm - N/A   Clear
6:15 AM 14.0 °F - 12.2 °F 93% 30.37 in 10.0 mi Calm Calm - N/A   Clear
6:35 AM 14.0 °F - 12.2 °F 93% 30.37 in 10.0 mi Calm Calm - N/A   Clear
6:55 AM 14.0 °F - 12.2 °F 93% 30.38 in 10.0 mi Calm Calm - N/A   Clear
7:15 AM 14.0 °F - 12.2 °F 93% 30.39 in 10.0 mi Calm Calm - N/A   Clear
7:35 AM 14.0 °F - 12.2 °F 93% 30.39 in 10.0 mi Calm Calm - N/A   Clear
7:55 AM 14.0 °F - 12.2 °F 93% 30.38 in 10.0 mi Calm Calm - N/A   Clear
8:15 AM 15.8 °F - 14.0 °F 93% 30.38 in 10.0 mi Calm Calm - N/A   Scattered Clouds
8:35 AM 17.6 °F - 14.0 °F 86% 30.37 in 10.0 mi Calm Calm - N/A   Mostly Cloudy
8:55 AM 17.6 °F - 14.0 °F 86% 30.38 in 10.0 mi Calm Calm - N/A   Scattered Clouds
9:15 AM 19.4 °F - 15.8 °F 86% 30.37 in 10.0 mi Calm Calm - N/A   Clear
9:35 AM 21.2 °F - 15.8 °F 80% 30.36 in 10.0 mi Calm Calm - N/A   Clear
9:55 AM 23.0 °F - 14.0 °F 68% 30.37 in 10.0 mi Calm Calm - N/A   Clear
10:15 AM 23.0 °F 18.4 °F 14.0 °F 68% 30.38 in 10.0 mi ESE 3.5 mph - N/A   Clear
10:35 AM 24.8 °F 19.1 °F 14.0 °F 64% 30.37 in 10.0 mi East 4.6 mph - N/A   Clear
10:55 AM 26.6 °F - 14.0 °F 59% 30.37 in 10.0 mi Calm Calm - N/A   Clear
11:15 AM 26.6 °F - 14.0 °F 59% 30.36 in 10.0 mi Calm Calm - N/A   Clear
11:35 AM 26.6 °F 21.2 °F 14.0 °F 59% 30.35 in 10.0 mi SE 4.6 mph - N/A   Clear
11:55 AM 28.4 °F 23.3 °F 14.0 °F 55% 30.34 in 10.0 mi SE 4.6 mph - N/A   Clear
12:15 PM 28.4 °F 24.6 °F 14.0 °F 55% 30.32 in 10.0 mi SSE 3.5 mph - N/A   Clear
12:35 PM 28.4 °F 21.2 °F 14.0 °F 55% 30.31 in 10.0 mi SE 6.9 mph - N/A   Clear
1:15 PM 28.4 °F 22.2 °F 12.2 °F 51% 30.29 in 10.0 mi SE 5.8 mph - N/A   Clear
1:35 PM 30.2 °F 24.3 °F 14.0 °F 51% 30.28 in 10.0 mi SSE 5.8 mph - N/A   Unknown
1:55 PM 30.2 °F 24.3 °F 15.8 °F 55% 30.27 in 10.0 mi ESE 5.8 mph - N/A   Clear
2:15 PM 30.2 °F - 14.0 °F 51% 30.26 in 10.0 mi Calm Calm - N/A   Clear
2:35 PM 30.2 °F 26.7 °F 14.0 °F 51% 30.27 in 10.0 mi East 3.5 mph - N/A   Clear
3:15 PM 30.2 °F - 10.4 °F 44% 30.27 in 10.0 mi Calm Calm - N/A   Clear
3:35 PM 32.0 °F - 12.2 °F 44% 30.27 in 10.0 mi Calm Calm - N/A   Clear
3:55 PM 30.2 °F - 8.6 °F 40% 30.26 in 10.0 mi Calm Calm - N/A   Clear
4:15 PM 32.0 °F - 10.4 °F 41% 30.26 in 10.0 mi Calm Calm - N/A   Clear
4:35 PM 32.0 °F - 12.2 °F 44% 30.25 in 10.0 mi Calm Calm - N/A   Clear
5:15 PM 30.2 °F - 12.2 °F 47% 30.25 in 10.0 mi Calm Calm - N/A   Clear
5:35 PM 30.2 °F - 14.0 °F 51% 30.25 in 10.0 mi Calm Calm - N/A   Clear
5:55 PM 28.4 °F - 14.0 °F 55% 30.24 in 10.0 mi Calm Calm - N/A   Clear
6:15 PM 28.4 °F - 14.0 °F 55% 30.24 in 10.0 mi Calm Calm - N/A   Clear
6:35 PM 28.4 °F - 12.2 °F 51% 30.23 in 10.0 mi Calm Calm - N/A   Clear
6:55 PM 24.8 °F - 17.6 °F 74% 30.24 in 10.0 mi Calm Calm - N/A   Clear
7:15 PM 23.0 °F - 17.6 °F 80% 30.24 in 10.0 mi Calm Calm - N/A   Clear
7:35 PM 23.0 °F - 17.6 °F 80% 30.23 in 10.0 mi Calm Calm - N/A   Clear
7:55 PM 23.0 °F - 17.6 °F 80% 30.23 in 10.0 mi Calm Calm - N/A   Clear
8:15 PM 21.2 °F - 17.6 °F 86% 30.23 in 10.0 mi Calm Calm - N/A   Clear
8:35 PM 21.2 °F - 17.6 °F 86% 30.22 in 10.0 mi Calm Calm - N/A   Clear
8:55 PM 21.2 °F - 17.6 °F 86% 30.21 in 10.0 mi Calm Calm - N/A   Clear
9:15 PM 19.4 °F - 17.6 °F 93% 30.21 in 10.0 mi Calm Calm - N/A   Unknown
9:35 PM 19.4 °F - 15.8 °F 86% 30.19 in 10.0 mi Calm Calm - N/A   Clear
9:55 PM 19.4 °F - 15.8 °F 86% 30.19 in 10.0 mi Calm Calm - N/A   Clear
10:15 PM 19.4 °F - 15.8 °F 86% 30.19 in 10.0 mi Calm Calm - N/A   Clear
10:35 PM 17.6 °F - 15.8 °F 93% 30.18 in 10.0 mi Calm Calm - N/A   Clear
10:55 PM 17.6 °F - 15.8 °F 93% 30.18 in 10.0 mi Calm Calm - N/A   Clear
11:15 PM 17.6 °F - 15.8 °F 93% 30.18 in 10.0 mi Calm Calm - N/A   Clear
11:35 PM 17.6 °F - 14.0 °F 86% 30.18 in 10.0 mi Calm Calm - N/A   Clear
11:55 PM 15.8 °F - 14.0 °F 93% 30.17 in 10.0 mi Calm Calm - N/A   Clear